DW5508 Weather Reports


time (UTC)temp
C
wind
direction
speed
KPH
gust
KPH
rain 1hr
cm
rain 24hr
cm
rain mn
cm
humidity
%
barometer
mb
20260502163014 18 136 0.0 6.4 0.00 0.00 0.00 26 1020.9
20260502161510 17 132 1.6 8.0 0.00 0.00 0.00 28 1021.0
20260502151612 15 113 0.0 4.8 0.00 0.00 0.00 35 1021.1
20260502150105 14 196 0.0 1.6 0.00 0.00 0.00 39 1021.1
20260502123036 5 221 0.0 1.6 0.00 0.00 0.00 67 1020.7
20260502121529 5 222 0.0 1.6 0.00 0.00 0.00 69 1020.6
20260502114525 5 225 0.0 1.6 0.00 0.00 0.00 67 1020.5
20260502113024 5 219 0.0 0.0 0.00 0.00 0.00 65 1020.5
20260502111522 5 219 0.0 0.0 0.00 0.00 0.00 62 1020.5
20260502110025 5 201 0.0 0.0 0.00 0.00 0.00 61 1020.5
20260502104520 5 201 0.0 0.0 0.00 0.00 0.00 61 1020.5
20260502103020 5 201 0.0 0.0 0.00 0.00 0.00 59 1020.4
20260502101521 5 201 0.0 0.0 0.00 0.00 0.00 58 1020.4
20260502091511 6 201 0.0 0.0 0.00 0.00 0.00 55 1020.1
20260502070056 7 186 0.0 0.0 0.00 0.00 0.00 49 1020.5
20260502064553 7 230 0.0 1.6 0.00 0.00 0.00 49 1020.4
20260502063052 6 226 0.0 0.0 0.00 0.00 0.00 52 1020.3
20260502061549 7 226 0.0 0.0 0.00 0.00 0.00 50 1020.3
20260502060052 7 228 0.0 1.6 0.00 0.00 0.00 51 1020.3
20260502054545 7 254 0.0 0.0 0.00 0.00 0.00 48 1020.2
20260502053103 7 255 0.0 0.0 0.00 0.00 0.00 50 1020.1
20260502051545 7 255 0.0 0.0 0.00 0.00 0.00 49 1020.1
20260502050043 8 255 0.0 0.0 0.00 0.00 0.00 46 1020.1
20260502044542 8 255 0.0 0.0 0.00 0.00 0.00 43 1020.2
20260502043143 10 255 0.0 1.6 0.00 0.00 0.00 41 1020.1
20260502041543 10 255 0.0 0.0 0.00 0.00 0.00 39 1020.0
20260502040044 11 255 0.0 0.0 0.00 0.00 0.00 37 1019.9
20260502034540 11 255 0.0 0.0 0.00 0.00 0.00 36 1019.7
20260502033041 12 255 0.0 1.6 0.00 0.00 0.00 35 1019.5
20260502031540 12 255 0.0 1.6 0.00 0.00 0.00 35 1019.3
20260502030052 13 255 0.0 1.6 0.00 0.00 0.00 33 1019.1
20260502024543 13 283 0.0 4.8 0.00 0.00 0.00 31 1019.0
20260502023054 14 304 0.0 6.4 0.00 0.00 0.00 28 1018.8
20260502021541 15 293 1.6 4.8 0.00 0.00 0.00 27 1018.7
20260502020036 15 293 4.8 11.3 0.00 0.00 0.00 26 1018.7
20260502014539 16 309 4.8 11.3 0.00 0.00 0.00 25 1018.6
20260502013038 16 328 4.8 12.9 0.00 0.00 0.00 26 1018.6
20260502011536 16 306 6.4 12.9 0.00 0.00 0.00 26 1018.5
20260502010032 17 304 6.4 16.1 0.00 0.00 0.00 26 1018.6
20260502004531 17 307 6.4 19.3 0.00 0.00 0.00 26 1018.5
20260502003032 17 299 6.4 14.5 0.00 0.00 0.00 27 1018.5
20260502001531 17 281 4.8 16.1 0.00 0.00 0.00 26 1018.6
20260502000030 18 307 6.4 11.3 0.00 0.00 0.00 26 1018.6
20260501234528 18 305 4.8 17.7 0.00 0.00 0.00 25 1018.7
20260501233028 18 274 4.8 20.9 0.00 0.00 0.00 26 1018.7
20260501231527 18 284 6.4 16.1 0.00 0.00 0.00 25 1018.6
20260501230026 18 16 4.8 12.9 0.00 0.00 0.00 27 1018.8
20260501224524 17 313 4.8 24.1 0.00 0.00 0.00 26 1018.9
20260501223109 18 354 4.8 16.1 0.00 0.00 0.00 26 1019.0
20260501221525 18 333 4.8 14.5 0.00 0.00 0.00 25 1019.1
20260501220024 18 14 3.2 14.5 0.00 0.00 0.00 22 1019.3
20260501214522 18 56 6.4 16.1 0.00 0.00 0.00 25 1019.4
20260501213020 18 26 4.8 16.1 0.00 0.00 0.00 25 1019.4
20260501211519 18 334 4.8 12.9 0.00 0.00 0.00 24 1019.5
20260501210020 18 317 4.8 17.7 0.00 0.00 0.00 27 1019.6
20260501204518 17 347 6.4 14.5 0.00 0.00 0.00 27 1019.8
20260501203035 18 309 6.4 14.5 0.00 0.00 0.00 27 1019.7
20260501201515 17 309 4.8 14.5 0.00 0.00 0.00 26 1019.7
20260501200015 18 276 1.6 11.3 0.00 0.00 0.00 25 1019.7
20260501194518 17 21 3.2 17.7 0.00 0.00 0.00 29 1019.9
20260501193012 16 30 1.6 11.3 0.00 0.00 0.00 28 1019.9
20260501191511 17 322 1.6 9.7 0.00 0.00 0.00 28 1020.1
20260501190010 17 27 1.6 9.7 0.00 0.00 0.00 27 1020.3
20260501184527 17 300 4.8 12.9 0.00 0.00 0.00 27 1020.4
20260501183006 16 26 1.6 12.9 0.00 0.00 0.00 28 1020.5
20260501181505 16 6 3.2 11.3 0.00 0.00 0.00 26 1020.5
20260501180012 16 266 1.6 12.9 0.00 0.00 0.00 28 1020.6
20260501174502 16 41 1.6 11.3 0.00 0.00 0.00 31 1020.7
20260501173001 16 308 1.6 11.3 0.00 0.00 0.00 29 1020.8
20260501171559 15 1 1.6 9.7 0.00 0.00 0.00 27 1020.8
20260501171511 15 313 3.2 9.7 0.00 0.00 0.00 25 1020.8
20260501170056 15 338 1.6 4.8 0.00 0.00 0.00 30 1020.9